カタログに戻る

QIANFAN-141

運用中通信PO
NORAD 69087·PAYLOAD·🇨🇳 China

打ち上げ May 12, 2026 から Taiyuan Satellite Launch Center

Loading…

次のパス (今後24時間)

TLE

最新Source: Space-Track

元期: Sep 14, 2026, 14:04 UTC

1 69087U 26104Q   26257.58672070  .00000027  00000-0  22876-4 0  9998
2 69087  88.9905 332.3185 0002232 113.9492 246.1893 13.51019913 17244

AllMySatでQIANFAN-141をリアルタイム追跡

Download on the App Store